User: anonymous   Login
Location: Unspecified
(0.0000°N, 0.0000°E)
Time: 23:01:32
(UTC+00:00)
Language:

Cosmos 1809 - Orbit

View from above orbital plane
View from above orbital plane
View from above satellite
View from above satellite

Ground track
Ground track

The orbit data is extracted from the following two-line orbital elements,

1 17241U 86101A   18113.57378678 +.00000027 +00000-0 +11218-4 0  9992
2 17241 082.5272 130.5966 0014257 230.5342 244.5055 13.84111698583026
Epoch (UTC): 23 April 2018 13:46:15
Eccentricity: 0.0014257
inclination: 82.5272°
perigee height: 939 km
apogee height: 960 km
right ascension of ascending node: 130.5966°
argument of perigee: 230.5342°
revolutions per day: 13.84111698
mean anomaly at epoch: 244.5055°
orbit number at epoch: 58302

The dashed part of the orbit path shows where the satellite is in the earth's shadow,  

DLR